Weather Roundup
Issued by NWS

Home | Current Version | Previous Version | Text Only | Print | Product List | Glossary On
Versions: 1 2 3 4 5 6 7 8 9 10 11 12 13 14 15 16 17 18 19 20 21 22 23 24 25 26 27 28 29 30 31 32 33 34 35 36 37 38 39 40 41 42 43 44 45 46 47 48 49 50
595
NZUS93 KARX 300410
HRRWXR

CURRENT HOURLY OBSERVATIONS ACROSS
MUCH OF THE UPPER MISSISSIPPI VALLEY
NATIONAL WEATHER SERVICE LA CROSSE WI
1100 PM CDT FRI APR 29 2016


...SOUTHEAST MINNESOTA...


CITY           SKY/WX    TMP DP  RH WIND       PRES   REMARKS
ROCHESTER      CLOUDY    43  39  86 NE6       30.08F
ROCHESTER/MAYO FAIR      47  40  77 NE5       30.09F
WINONA         CLOUDY    43  41  93 CALM      30.11F
AUSTIN         CLOUDY    46  39  76 E5        30.10R
ALBERT LEA     CLOUDY    45  39  81 E6        30.09R
DODGE CENTER   CLOUDY    43  37  81 E6        30.08F
PRESTON        CLOUDY    44  38  79 NE3       30.09S
OWATONNA       CLOUDY    45  37  76 E6        30.09S
FARIBAULT      CLOUDY    45  39  81 CALM      30.10S
$$

...ELSEWHERE IN MINNESOTA...


CITY           SKY/WX    TMP DP  RH WIND       PRES   REMARKS
MINNEAPOLIS    CLOUDY    51  39  63 E3        30.11S
INTNL FALLS    CLEAR     45  31  58 E7        30.24S
DULUTH         CLEAR     38  28  67 NE8       30.21S WCI  32
RED WING       CLOUDY    43  39  87 CALM      30.11F
REDWOOD FALLS  PTCLDY    48  37  65 E5        30.08F
MANKATO        CLOUDY    48  39  71 E6        30.09S
WORTHINGTON    MOCLDY    43  41  93 E7        30.08R
FAIRMONT       CLOUDY    43  30  61 CALM      30.09R
$$

...SOUTHWEST WISCONSIN...


CITY           SKY/WX    TMP DP  RH WIND       PRES   REMARKS
LA CROSSE      CLOUDY    47  40  76 SE3       30.10F
PRAIRIE DU CHI PTCLDY    44  39  82 CALM      30.08F
BOSCOBEL       CLOUDY    39  37  92 CALM      30.10F
LONE ROCK      CLOUDY    40  38  93 NE3       30.11F
PLATTEVILLE    CLOUDY    42  39  89 E5        30.09S
FORT MC COY    CLOUDY    40  38  96 CALM      30.11F
CAMP DOUGLAS   CLOUDY    37  37 100 NE2       30.11F
MAUSTON-NEW LI CLOUDY    39  37  93 CALM      30.11F
VIROQUA        FAIR      42  37  83 E5        30.10S
WIS DELLS      CLEAR     43  34  72 E5        30.12S
$$

...ELSEWHERE IN WISCONSIN...


CITY           SKY/WX    TMP DP  RH WIND       PRES   REMARKS
MILWAUKEE      CLOUDY    42  35  76 NE5       30.14F
MADISON        CLOUDY    42  35  76 E8        30.12F
GREEN BAY      CLEAR     44  32  62 CALM      30.16S
EAU CLAIRE     CLOUDY    43  38  82 N3        30.11F
BLACK RVR FLS  FAIR      38  38 100 CALM      30.12S
MEDFORD        CLEAR     41  37  86 E5        30.13F
WAUSAU         CLEAR     46  34  62 E5        30.13S
WIS RAPIDS     CLOUDY    46  33  60 SE5       30.14S
MARSHFIELD     CLEAR     45  35  68 E5        30.12S
RICE LAKE      CLEAR     45  32  59 NE6       30.16F
$$

...NORTHEAST IOWA...


CITY           SKY/WX    TMP DP  RH WIND       PRES   REMARKS
WATERLOO       CLOUDY    44  40  85 E3        30.08R
DUBUQUE        NOT AVBL
DECORAH        CLOUDY    46  39  76 E5        30.07F
MASON CITY     CLOUDY    46  41  82 E9        30.10R
CHARLES CITY   CLOUDY    46  43  87 E6        30.10R
OELWEIN        CLOUDY    45  43  93 NE8       30.07S
$$

...ELSEWHERE IN IOWA...


CITY           SKY/WX    TMP DP  RH WIND       PRES   REMARKS
DES MOINES     CLOUDY    49  41  74 E15G23    30.01S
IOWA CITY      CLOUDY    48  41  76 E9        30.08R
FORT DODGE     CLOUDY    45  37  76 NE8       30.05F
MARSHALLTOWN   CLOUDY    46  41  82 E10       30.05R
CEDAR RAPIDS   CLOUDY    46  42  86 E9        30.06R
$$

...NORTHERN ILLINOIS...


CITY           SKY/WX    TMP DP  RH WIND       PRES   REMARKS
CHICAGO-OHARE  CLOUDY    43  37  79 E9        30.12F
CHICAGO-MIDWAY CLOUDY    45  37  73 E10       30.12F
MOLINE         CLOUDY    48  41  76 E16       30.05F
ROCKFORD       PTCLDY    43  38  82 E7        30.13S
PEORIA         CLOUDY    49  43  80 NE12      30.04F
$$

NOTE: "FAIR" INDICATES FEW OR NO CLOUDS BELOW 12,000 FEET WITH NO
SIGNIFICANT WEATHER AND/OR OBSTRUCTIONS TO VISIBILITY. WIND
SPEEDS ARE IN MILES-PER-HOUR.




USA.gov is the U.S. government's official web portal to all federal, state and local government web resources and services.